星链-32668 (STARLINK-32668)

导读

STARLINK-32668是美国SpaceX公司星链(Starlink)星座的第二代迷你版卫星,于2024年12月4日由猎鹰9号火箭在佛罗里达州卡纳维拉尔角发射升空,属于Starlink Group 6-70任务批次。它运行在近地轨道,属于星链第二代低轨互联网卫星星座组网的一部分,旨在为全球提供高速低延迟的宽带互联网服务,进一步扩充星链星座的覆盖能力与服务容量,支撑星链全球化组网与手机直连等新业务拓展。

Basic Information
目录编号:
62212
目录名称:
STARLINK-32668
国际标识:
2024-229W
轨道中心:
EARTH
卫星名称:
星链-32668
卫星全名:
星链-32668 (STARLINK-32668)
卫星状态:
在轨 (已飞行639 天)
发射日期:
2024-12-04 UTC
国别 :
美国 (US)
星等 :
--
Orbit Information
数据来源 国际轨道数据 AOE轨道数据
星历时间 2026-09-03T23:18:22+0800
20小时前
查看轨道信息
2026-09-03T09:00:00+0800
1天前
查看轨道信息
半长轴 6861.175km 6861.046km
偏心率 0.0001019 0.0000799
轨道倾角 43.001° 43.000°
近地点辐角 275.796° 305.178°
升交点赤经 342.527° 345.894°
平近点角 84.278° 13.048°
近地点 482.338km 482.36km
远地点 483.738km 483.458km
周期 94.267分钟 94.264分钟
每日圈数 15.27584 15.276269
Detailed Information
固有亮度:
5
最大亮度:
2.5
卫星平台:
Starlink V1.0
覆盖范围:
全球
运营商:
太空探索技术公司
运营商所在国:
美国
制造商(研发单位):
太空探索技术公司
制造商所在国:
美国
使用方式:
暂无
Satellite Introduction
Starlink 计划是 SpaceX 推出的全球卫星互联网项目,通过发射低轨道卫星,为全球尤其是偏远地区提供高速、低延迟的互联网服务。自 2019 年起,Starlink 已部署数千颗卫星,旨在缩小全球数字鸿沟,推动互联网普及。该项目还为军事、航空等行业提供通信支持,带来广泛经济效益。
2D Orbit Map
3D Orbit Map
Orbit Altitude Analysis Chart
Orbit Inclination Analysis Chart
Orbit Comprehensive Analysis Chart
View Comprehensive Chart
Conjunction Data List
Event ID Objects TCA Miss Dist (km) Collision Risk Probability Collision Risk Index (CRI) Action
CDM_260831-103706-221206-382321
2026-08-31T
10:37:36+0000
0.990 km
远距离
1.807296E-5 中风险 0.6
CDM_260905-020506-221206-470721
2026-09-05T
02:05:27+0000
2.017 km
极远距离
2.29539E-6 低风险 0.42